User: anonymous   Login
Location: Unspecified
(0.0000°N, 0.0000°E)
Time: 19:04:35
(UTC+00:00)
Language:

FLTSATCOM F7 - Orbit

View from above orbital plane
View from above orbital plane
View from above satellite
View from above satellite

Ground track
Ground track

The orbit data is extracted from the following two-line orbital elements,

1 17181U 86096A   19082.96966251 -.00000200  00000-0  00000+0 0  9993
2 17181  14.6254 359.8972 0067340 279.2831 344.2126  0.99840506125772
Epoch (UTC): 23 March 2019 23:16:18
Eccentricity: 0.0067340
inclination: 14.6254°
perigee height: 35623 km
apogee height: 36192 km
right ascension of ascending node: 359.8972°
argument of perigee: 279.2831°
revolutions per day: 0.99840506
mean anomaly at epoch: 344.2126°
orbit number at epoch: 12577

The dashed part of the orbit path shows where the satellite is in the earth's shadow,  

DLR